Temp
50 50 51 51 51 51 51 51 51 51 51 51 51 51 51 51 50 46 42 42 36 31 35 36 36 30 32 29 23 28 26 24 24 18 19 21 18 21 17 22 18 17 17 17 20 15 14 32 34 26 29 33 35 36
50 50 51 51 51 51 51 51 51 50 50 50 50 50 51 51 50 49 39 42 42 33 33 38 39 41 38 36 30 29 28 25 28 23 22 22 19 22 19 13 27 18 22 20 23 26 34 35 30 34 34 32 34 35
49 50 50 50 50 51 51 50 50 50 50 50 50 50 50 50 50 47 40 40 36 31 32 31 33 38 39 37 40 26 31 31 29 32 25 24 18 24 16 20 22 26 28 24 24 30 29 31 33 33 34 34 35 37
49 49 50 50 50 50 50 50 50 49 49 49 50 50 49 49 47 43 38 38 36 31 25 30 37 35 39 38 37 35 32 33 31 30 25 23 20 28 22 24 22 23 25 22 24 29 29 32 31 32 33 35 35 38
49 49 49 50 50 50 49 49 49 49 49 49 49 49 48 48 45 40 38 38 37 31 26 29 34 36 37 37 34 33 31 30 28 25 24 22 26 25 28 25 20 24 20 19 20 27 25 26 31 33 32 32 35 36
49 50 50 49 49 49 49 49 48 48 48 48 48 48 47 46 42 38 32 37 39 35 28 22 32 29 34 36 32 31 31 31 30 27 26 27 28 26 20 19 22 23 25 27 24 29 28 30 30 32 33 33 35 35
49 49 49 49 49 49 49 48 48 48 48 48 48 46 46 44 40 34 31 37 40 36 28 22 24 32 32 32 33 32 32 29 29 27 23 23 22 25 20 13 19 21 25 27 30 29 26 28 26 32 30 30 31 30
48 48 48 49 49 48 48 48 47 48 47 47 46 45 44 44 41 36 38 41 38 32 30 20 21 26 32 28 26 32 29 30 28 25 25 21 23 22 14 17 20 23 26 26 27 28 28 28 28 29 30 29 28 27
48 48 48 48 48 48 47 47 47 47 47 45 42 42 38 34 31 32 41 40 38 31 23 22 17 15 31 28 28 29 30 22 28 21 21 24 18 11 15 17 19 23 24 24 26 26 26 26 26 27 27 27 26 26
47 47 48 48 47 47 47 47 46 46 45 41 36 30 26 30 38 36 30 27 25 23 25 20 25 18 25 25 25 25 28 23 18 20 26 17 14 18 19 20 22 24 25 25 23 22 23 23 24 25 25 26 26 26
47 47 48 47 46 46 46 46 46 44 41 34 27 24 31 34 29 20 17 17 15 17 22 21 20 16 27 21 21 26 21 22 14 18 17 13 11 15 19 20 21 23 24 24 25 25 25 25 24 24 24 25 26 27
47 47 47 47 46 46 46 45 44 35 31 32 32 28 27 18 16 14 4 12 15 12 19 16 17 19 22 28 23 24 20 21 12 23 15 9 14 17 18 19 20 21 22 22 24 23 24 25 25 25 25 24 25 26
46 46 47 46 45 45 45 44 43 39 34 29 21 15 16 10 6 5 2 8 10 16 17 16 15 20 24 27 23 21 17 15 24 14 10 12 16 18 18 19 20 21 21 21 21 22 23 22 23 24 23 25 26 27
46 46 46 44 45 44 43 42 40 33 26 13 12 6 6 4 8 9 11 12 17 16 16 17 17 19 24 20 20 16 18 21 12 9 9 14 16 17 19 19 20 19 20 21 21 22 22 23 23 24 25 26 26 25
45 46 43 43 44 43 41 39 36 29 21 11 13 5 7 12 10 12 13 14 17 19 18 17 18 20 19 16 18 17 13 9 12 11 14 17 18 18 19 19 19 20 21 21 21 21 21 22 22 21 23 24 25 25
45 42 39 44 43 41 39 33 29 24 11 13 11 9 13 10 9 11 12 13 20 19 19 18 14 13 12 14 11 9 10 8 12 16 18 19 18 19 19 20 20 20 20 20 21 21 21 21 20 21 22 22 22 23
43 35 42 43 42 37 35 25 20 9 12 12 12 14 14 11 10 12 16 17 21 16 15 14 9 7 14 10 8 11 10 13 16 17 19 19 18 18 19 20 20 19 19 19 19 20 20 21 21 20 18 19 21 21
36 36 41 41 36 32 22 15 13 13 9 8 13 14 16 18 15 16 16 18 17 17 16 10 14 8 6 6 9 12 15 17 19 18 18 18 19 19 20 18 18 18 18 17 18 18 18 18 18 18 19 19 21 20
37 36 39 37 31 19 16 12 12 11 10 12 15 18 17 18 20 18 18 20 21 20 15 10 6 5 8 11 14 15 17 18 16 16 16 17 17 17 18 18 17 16 16 16 17 16 17 17 17 18 20 20 18 20
39 39 37 33 29 16 12 9 8 13 12 15 15 14 17 17 18 17 17 18 17 13 7 6 7 9 11 13 18 18 19 20 18 15 15 16 17 16 15 15 15 16 15 15 16 19 16 17 18 18 20 20 18 18
33 33 31 25 11 8 5 3 6 7 9 14 12 15 16 17 15 12 11 16 10 8 7 10 12 14 15 15 18 19 19 20 18 18 16 14 16 16 15 15 15 15 13 13 12 13 15 14 16 18 16 17 20 19
28 32 17 18 9 6 5 0 5 4 8 7 13 13 9 8 11 12 15 9 8 10 12 12 13 14 14 13 14 16 17 18 18 19 19 18 15 14 14 14 13 11 12 12 12 12 12 15 19 17 16 18 18 19
28 24 11 9 11 9 4 2 5 -0 6 6 4 10 8 8 12 14 9 11 11 14 15 15 14 15 14 15 15 15 15 15 14 14 14 13 14 15 14 14 14 11 10 12 13 12 12 16 16 17 16 16 17 18
21 5 3 1 2 3 2 -1 2 2 0 1 1 2 7 8 10 10 7 10 13 15 15 15 16 15 15 13 11 11 12 14 12 12 12 13 12 11 13 13 14 13 13 12 12 12 13 12 15 14 14 14 16 16
11 5 3 -2 -3 2 -1 -0 -2 3 -3 -9 -4 1 5 2 10 10 10 10 12 13 13 15 15 15 11 10 11 11 12 13 12 10 10 12 11 11 12 12 13 13 13 10 10 11 11 12 12 12 13 14 16 14
1 0 -0 0 1 3 0 -1 -5 -5 -5 -4 -3 -1 -3 5 8 8 11 12 11 12 12 12 13 12 11 12 11 11 11 11 11 11 11 11 11 10 8 8 8 11 14 12 9 9 10 11 11 10 12 13 17 13
-1 -2 7 14 9 6 4 4 4 1 -6 -3 -2 -3 -0 -1 3 9 11 12 12 12 13 14 13 13 12 11 11 10 10 9 9 10 10 10 11 10 10 7 6 11 11 11 10 11 10 10 11 11 12 13 14 13
6 6 1 2 2 2 -3 -4 -6 -5 -2 3 2 -4 -2 2 5 9 11 11 11 10 10 9 9 9 9 8 7 6 6 4 3 5 7 8 7 6 6 7 7 14 15 9 14 14 12 11 12 12 12 11 11 13
3 10 9 -2 -3 -3 -5 -3 -2 3 5 3 -1 0 -0 5 5 6 11 11 10 10 9 8 7 5 4 4 4 4 2 6 9 5 7 8 7 9 5 5 5 6 7 7 15 17 15 17 15 15 11 10 11 12
0 7 -0 -6 -3 -1 -2 2 -2 -2 3 2 1 2 4 4 5 6 10 9 9 9 9 7 5 5 7 7 7 5 3 2 5 7 6 6 6 8 5 4 5 7 6 7 7 7 13 12 8 5 5 6 8 10
2 -1 -5 -5 -5 -5 -5 -3 -2 1 -4 -6 -7 -4 0 -1 4 6 9 9 7 4 4 3 2 1 4 3 5 5 6 4 -0 -2 -2 1 2 2 4 5 7 7 6 6 5 4 2 2 2 2 3 1 2 5
-3 -9 -6 -5 -5 -5 -5 -8 -9 -6 -7 -7 -6 -7 -4 -2 -1 3 3 2 2 3 7 5 4 6 3 3 2 1 11 3 1 1 -0 2 5 7 9 8 7 6 7 4 3 1 -2 -1 0 0 2 1 1 1
-12 -12 -12 -10 -8 -6 -3 -3 -4 -6 -4 -5 -5 -7 -8 -2 0 2 -1 -3 0 2 3 3 2 1 -1 -1 0 1 7 -1 -1 13 18 19 23 22 18 14 8 6 4 3 2 -0 -3 -4 -3 -3 -1 -2 -2 -1
MSLP
1028.81 1028.61 1028.35 1028.03 1027.63 1027.27 1026.88 1026.32 1025.78 1025.33 1024.92 1024.40 1023.64 1023.05 1022.50 1021.84 1021.47 1021.39 1020.82 1021.15 1021.13 1020.31 1019.26 1019.37 1019.30 1019.32 1019.10 1019.41 1019.15 1018.84 1019.08 1018.75 1018.49 1018.01 1017.49 1016.85 1016.44 1016.09 1015.82 1014.89 1014.41 1013.99 1013.63 1013.17 1012.60 1011.50 1010.32 1009.92 1008.07 1008.40 1009.01 1007.91 1007.13 1005.72
1028.54 1028.38 1028.06 1027.73 1027.34 1026.90 1026.47 1025.95 1025.42 1025.00 1024.37 1023.82 1023.19 1022.61 1021.91 1021.12 1020.69 1020.29 1020.10 1020.27 1020.50 1020.28 1019.41 1019.48 1019.07 1018.54 1018.54 1018.65 1019.04 1018.89 1018.57 1018.46 1018.03 1017.87 1017.72 1017.39 1016.76 1016.39 1016.03 1015.22 1014.47 1013.94 1013.94 1013.57 1012.71 1010.90 1010.60 1011.14 1011.08 1010.53 1009.89 1008.79 1007.35 1006.45
1028.21 1027.99 1027.89 1027.49 1026.91 1026.46 1025.96 1025.64 1025.13 1024.51 1023.87 1023.36 1022.68 1022.08 1021.35 1020.67 1020.19 1019.99 1020.05 1020.16 1020.38 1020.04 1019.34 1019.35 1018.44 1018.33 1018.24 1018.38 1018.40 1018.72 1017.78 1017.73 1017.50 1017.40 1017.73 1017.44 1017.02 1016.64 1015.95 1015.30 1015.13 1014.71 1014.49 1013.70 1013.11 1011.79 1011.73 1011.24 1011.20 1011.01 1010.25 1009.09 1007.96 1007.08
1027.92 1027.76 1027.51 1027.10 1026.68 1026.21 1025.69 1025.15 1024.66 1024.01 1023.38 1022.88 1022.09 1021.45 1020.90 1020.50 1020.31 1020.42 1020.40 1020.51 1020.36 1020.23 1019.79 1018.71 1018.49 1018.25 1018.16 1018.11 1018.09 1017.99 1017.54 1017.37 1017.37 1017.44 1017.36 1017.07 1016.80 1016.46 1015.83 1015.72 1015.83 1016.15 1015.41 1014.82 1013.51 1012.45 1012.02 1011.27 1011.86 1011.54 1010.61 1009.87 1008.75 1007.85
1027.71 1027.36 1027.00 1026.69 1026.40 1026.04 1025.59 1024.85 1024.20 1023.73 1023.09 1022.44 1021.71 1021.06 1020.76 1020.53 1020.48 1020.75 1020.81 1020.79 1020.62 1020.70 1019.95 1018.88 1018.52 1018.32 1017.98 1017.79 1017.59 1017.50 1017.21 1016.62 1016.37 1016.64 1016.71 1016.58 1016.59 1016.53 1015.69 1015.97 1016.78 1017.39 1016.93 1015.89 1014.52 1014.05 1014.15 1012.84 1012.82 1012.52 1011.20 1010.15 1009.43 1008.67
1027.31 1026.94 1026.59 1026.40 1025.90 1025.47 1025.19 1024.53 1023.88 1023.27 1022.58 1022.06 1021.36 1020.88 1020.65 1020.70 1020.54 1020.72 1020.86 1020.96 1020.68 1020.62 1020.33 1019.68 1019.16 1018.69 1017.95 1017.48 1017.31 1017.13 1016.76 1016.26 1016.13 1016.30 1016.43 1016.67 1016.84 1016.65 1016.35 1016.70 1017.58 1017.90 1017.60 1016.50 1015.41 1015.00 1014.68 1013.96 1013.55 1012.89 1011.88 1011.09 1010.46 1009.89
1026.89 1026.75 1026.45 1026.10 1025.65 1025.05 1024.59 1024.19 1023.63 1022.81 1022.06 1021.43 1020.92 1020.72 1020.55 1020.63 1020.60 1020.79 1021.08 1020.89 1020.53 1020.64 1020.56 1020.10 1019.30 1018.81 1018.37 1017.96 1017.44 1017.36 1017.15 1017.11 1016.78 1017.06 1017.76 1017.90 1018.00 1017.49 1018.11 1018.83 1018.85 1018.04 1017.08 1016.28 1015.65 1015.20 1014.87 1014.84 1014.35 1013.57 1012.97 1012.58 1012.14 1011.97
1026.65 1026.45 1026.12 1025.62 1025.41 1024.53 1024.22 1023.82 1023.21 1022.49 1021.62 1021.11 1020.85 1020.88 1020.95 1020.88 1020.98 1021.14 1021.16 1020.68 1020.55 1020.68 1020.89 1020.74 1020.16 1019.46 1019.00 1018.39 1018.00 1017.80 1017.37 1017.52 1017.94 1018.42 1018.79 1018.99 1019.07 1019.35 1019.72 1020.31 1019.40 1018.18 1017.16 1016.47 1015.77 1015.29 1015.07 1015.05 1014.57 1014.25 1013.89 1013.73 1013.46 1013.41
1026.39 1026.13 1025.64 1025.24 1024.91 1024.21 1023.94 1023.43 1022.61 1021.90 1021.27 1020.86 1020.73 1020.75 1021.32 1021.74 1021.84 1021.74 1021.33 1020.94 1020.86 1021.32 1021.36 1021.77 1021.52 1020.53 1019.79 1019.15 1018.68 1018.18 1017.85 1018.17 1018.93 1019.25 1019.57 1020.00 1020.84 1021.64 1022.18 1021.02 1019.68 1018.33 1017.62 1017.06 1016.54 1016.12 1015.80 1015.50 1015.48 1015.36 1015.20 1015.08 1014.83 1014.91
1026.27 1025.89 1025.38 1024.98 1024.52 1024.06 1023.71 1022.90 1021.98 1021.27 1021.09 1021.01 1020.95 1021.24 1021.99 1022.67 1022.35 1021.99 1021.74 1021.58 1021.63 1022.28 1022.48 1022.86 1022.59 1021.70 1021.30 1019.81 1019.04 1018.64 1018.28 1018.72 1019.32 1020.39 1020.54 1021.37 1022.36 1023.22 1022.57 1021.69 1020.51 1019.24 1018.46 1017.85 1017.33 1017.14 1017.01 1016.82 1016.77 1016.62 1016.57 1016.54 1016.33 1016.35
1026.05 1025.66 1025.07 1024.68 1024.42 1024.06 1023.28 1022.46 1021.79 1021.44 1021.38 1021.70 1022.30 1022.67 1022.78 1022.77 1022.75 1023.20 1023.56 1023.87 1024.27 1024.12 1024.24 1024.10 1023.66 1023.04 1021.82 1020.88 1019.94 1019.57 1019.48 1019.66 1020.41 1021.35 1021.53 1022.80 1023.43 1023.80 1023.34 1022.47 1021.64 1020.63 1019.79 1019.25 1018.83 1018.60 1018.25 1018.21 1018.07 1018.04 1018.06 1018.03 1017.98 1017.95
1025.83 1025.33 1024.78 1024.40 1024.21 1023.74 1022.94 1022.31 1021.91 1022.26 1022.72 1022.82 1022.88 1023.39 1023.65 1024.53 1024.78 1025.03 1026.37 1026.35 1025.99 1025.82 1025.37 1025.13 1024.70 1023.95 1022.63 1021.40 1020.74 1020.27 1020.24 1020.62 1021.79 1022.43 1023.17 1024.39 1025.19 1024.89 1024.16 1023.45 1022.84 1022.05 1021.35 1020.75 1020.31 1020.01 1019.98 1019.62 1019.57 1019.61 1019.62 1019.73 1019.80 1019.86
1025.47 1024.83 1024.34 1024.18 1023.97 1023.16 1022.75 1022.33 1022.18 1022.38 1022.75 1023.33 1023.81 1025.02 1026.16 1027.34 1027.50 1027.90 1028.18 1027.84 1027.22 1026.74 1026.37 1026.08 1025.14 1024.11 1022.82 1021.87 1021.32 1021.02 1021.15 1022.19 1022.83 1023.69 1025.18 1026.32 1026.68 1026.08 1025.42 1024.71 1024.00 1023.31 1022.71 1022.27 1022.00 1021.93 1021.91 1021.76 1021.63 1021.48 1021.57 1021.53 1021.34 1021.17
1025.03 1024.58 1024.16 1023.97 1023.60 1022.96 1022.71 1022.47 1022.41 1022.70 1023.11 1025.13 1026.47 1027.89 1028.85 1029.44 1029.74 1029.50 1029.11 1028.79 1028.19 1027.49 1026.94 1026.46 1025.43 1024.38 1023.26 1022.74 1022.29 1021.95 1022.86 1022.87 1024.05 1025.23 1026.44 1027.23 1027.38 1027.14 1026.65 1026.07 1025.33 1025.08 1024.75 1024.36 1024.01 1023.98 1023.58 1023.40 1023.45 1023.37 1023.06 1022.86 1022.60 1022.61
1024.62 1024.24 1024.10 1023.82 1023.42 1023.02 1022.82 1022.80 1022.77 1023.16 1024.99 1027.19 1028.07 1029.83 1029.99 1029.97 1029.94 1029.71 1029.32 1028.82 1028.19 1027.67 1027.15 1026.41 1025.71 1024.96 1024.05 1023.67 1023.46 1023.42 1023.83 1024.73 1025.55 1026.52 1027.33 1027.82 1027.98 1027.84 1027.54 1027.16 1026.75 1026.40 1026.06 1025.63 1025.63 1025.31 1025.26 1025.18 1024.97 1024.88 1024.85 1024.70 1024.40 1024.29
1024.33 1024.17 1024.03 1023.62 1023.33 1023.23 1023.06 1023.22 1023.46 1024.61 1027.16 1028.50 1029.51 1030.30 1029.97 1030.01 1029.78 1029.52 1029.08 1028.49 1027.89 1027.56 1027.15 1026.83 1026.18 1025.58 1025.27 1025.05 1024.83 1025.20 1025.30 1025.95 1026.86 1027.43 1028.09 1028.43 1028.55 1028.50 1028.23 1027.95 1027.77 1027.58 1027.23 1027.04 1026.83 1026.63 1026.50 1026.28 1026.23 1026.25 1026.21 1026.02 1025.85 1025.69
1024.13 1024.37 1023.92 1023.54 1023.30 1023.34 1023.40 1023.76 1025.01 1027.37 1028.47 1029.60 1030.08 1030.01 1029.84 1029.79 1029.58 1029.23 1028.78 1028.30 1028.00 1027.68 1026.95 1027.02 1026.88 1027.00 1026.65 1026.44 1026.64 1026.85 1026.81 1027.13 1027.68 1028.38 1028.92 1029.25 1029.36 1029.36 1029.23 1029.00 1028.78 1028.57 1028.42 1028.29 1028.15 1028.01 1027.92 1027.79 1027.62 1027.32 1027.26 1027.52 1027.24 1026.88
1024.21 1024.27 1023.95 1023.77 1023.41 1023.74 1024.91 1025.88 1027.08 1028.57 1029.77 1030.15 1029.97 1029.72 1029.43 1029.25 1029.11 1028.97 1028.75 1028.45 1028.09 1027.56 1027.50 1028.01 1028.04 1028.06 1028.11 1027.98 1027.89 1028.03 1028.18 1028.51 1028.92 1029.40 1029.82 1030.09 1030.14 1030.14 1030.07 1030.00 1029.98 1029.90 1029.80 1029.66 1029.46 1029.23 1028.99 1028.82 1028.57 1028.36 1028.17 1027.92 1027.58 1027.66
1024.01 1024.12 1024.07 1023.81 1023.86 1024.82 1026.61 1028.06 1028.46 1029.65 1030.33 1030.14 1029.75 1029.47 1029.23 1029.07 1028.98 1028.99 1028.70 1028.42 1028.22 1028.11 1028.40 1028.99 1029.40 1029.60 1029.53 1029.34 1028.94 1028.92 1029.00 1029.19 1029.74 1030.40 1030.82 1031.01 1031.00 1030.91 1030.88 1030.80 1030.79 1030.76 1030.68 1030.57 1030.36 1030.24 1030.06 1029.80 1029.53 1029.28 1029.04 1029.02 1028.85 1028.57
1024.01 1024.06 1024.12 1024.25 1024.18 1025.95 1028.45 1029.84 1029.91 1029.74 1030.44 1030.09 1029.80 1029.54 1029.22 1029.16 1029.07 1029.11 1028.96 1028.76 1028.67 1029.04 1029.79 1030.37 1030.72 1030.82 1030.64 1030.40 1029.87 1029.75 1029.87 1030.12 1030.37 1030.78 1031.28 1031.63 1031.80 1031.76 1031.79 1031.77 1031.78 1031.71 1031.57 1031.37 1031.17 1030.75 1030.66 1030.40 1030.33 1030.18 1029.83 1029.50 1029.20 1028.99
1024.33 1024.59 1024.54 1024.63 1026.24 1027.35 1029.76 1031.25 1031.31 1031.30 1030.85 1030.34 1030.11 1029.73 1029.55 1029.39 1029.33 1029.47 1029.59 1029.59 1029.82 1030.79 1031.24 1031.52 1031.46 1031.46 1031.44 1031.29 1031.03 1030.82 1030.81 1030.77 1030.88 1031.12 1031.59 1032.18 1032.48 1032.45 1032.52 1032.62 1032.55 1032.49 1032.49 1032.46 1032.33 1032.08 1031.71 1031.51 1031.25 1030.90 1030.56 1030.17 1029.78 1029.53
1025.13 1025.10 1025.48 1025.83 1027.31 1028.96 1030.64 1032.28 1032.15 1031.91 1031.40 1031.22 1030.60 1030.33 1030.29 1030.20 1030.00 1030.08 1030.12 1030.35 1031.43 1032.10 1032.03 1032.08 1032.07 1031.93 1031.96 1032.04 1032.15 1032.02 1031.91 1031.77 1031.83 1031.98 1032.34 1032.58 1032.92 1033.07 1033.25 1033.38 1033.33 1033.38 1033.37 1033.36 1033.18 1032.88 1032.58 1032.20 1031.43 1031.37 1031.03 1030.57 1030.25 1029.83
1025.48 1025.99 1026.99 1027.58 1028.81 1030.32 1032.59 1032.51 1032.56 1032.66 1032.41 1032.34 1031.89 1031.33 1031.23 1030.90 1030.62 1030.53 1030.98 1031.68 1032.29 1032.60 1032.51 1032.55 1032.67 1032.72 1032.70 1032.95 1032.99 1033.00 1032.98 1032.89 1033.02 1033.26 1033.44 1033.62 1033.80 1033.93 1034.04 1034.16 1034.19 1034.11 1033.99 1033.83 1033.65 1033.36 1033.05 1032.52 1032.11 1031.61 1031.38 1031.00 1030.67 1030.33
1026.88 1028.49 1029.68 1030.32 1031.25 1032.33 1032.63 1033.30 1033.27 1033.47 1033.43 1033.38 1033.15 1032.69 1032.14 1031.63 1031.11 1031.01 1031.79 1032.22 1032.68 1032.83 1032.85 1032.96 1033.05 1033.14 1033.31 1033.53 1033.81 1034.08 1034.19 1034.12 1034.18 1034.30 1034.36 1034.28 1034.46 1034.69 1034.69 1034.72 1034.66 1034.58 1034.60 1034.54 1034.22 1033.84 1033.44 1033.04 1032.50 1032.19 1031.79 1031.40 1030.97 1030.70
1028.67 1031.57 1031.97 1032.24 1032.72 1032.88 1033.62 1033.99 1034.01 1033.94 1034.56 1034.96 1034.25 1033.63 1032.96 1032.50 1031.70 1031.70 1031.93 1032.49 1032.80 1033.05 1033.18 1033.25 1033.32 1033.46 1033.79 1034.27 1034.53 1034.75 1034.93 1034.84 1034.80 1034.91 1035.11 1034.98 1035.06 1035.12 1035.08 1035.06 1035.03 1035.10 1035.05 1034.78 1034.45 1034.10 1033.69 1033.28 1032.87 1032.49 1032.10 1031.64 1031.05 1030.71
1030.72 1032.84 1033.08 1033.10 1033.30 1033.41 1034.04 1034.40 1034.58 1034.87 1035.10 1035.01 1034.60 1034.21 1033.63 1032.88 1032.30 1032.23 1032.14 1032.42 1032.98 1033.32 1033.59 1033.73 1033.80 1034.04 1034.33 1034.57 1034.87 1035.18 1035.38 1035.48 1035.44 1035.46 1035.68 1035.61 1035.52 1035.44 1035.57 1035.60 1035.56 1035.37 1035.30 1035.19 1034.88 1034.36 1033.90 1033.48 1033.08 1032.68 1032.21 1031.78 1031.34 1031.16
1032.44 1033.33 1033.34 1033.13 1033.39 1033.79 1034.31 1034.67 1034.87 1035.02 1035.17 1035.15 1034.94 1034.59 1034.10 1033.53 1032.99 1032.78 1032.85 1033.09 1033.30 1033.70 1033.95 1034.17 1034.29 1034.44 1034.65 1034.99 1035.35 1035.56 1035.76 1035.87 1035.88 1036.04 1036.05 1036.04 1036.00 1035.98 1036.03 1036.17 1036.06 1035.71 1035.38 1035.10 1034.74 1034.28 1033.93 1033.57 1033.17 1032.82 1032.52 1032.13 1031.81 1031.51
1033.19 1033.50 1033.71 1033.97 1034.09 1034.48 1034.90 1035.33 1035.69 1035.49 1035.36 1035.30 1035.16 1034.92 1034.58 1033.93 1033.58 1033.38 1033.37 1033.74 1033.95 1034.22 1034.47 1034.78 1034.97 1035.09 1035.24 1035.46 1035.72 1035.83 1035.93 1036.00 1036.07 1036.24 1036.36 1036.28 1036.35 1036.45 1036.41 1036.31 1036.24 1035.33 1034.85 1035.17 1034.24 1033.85 1033.70 1033.37 1032.95 1032.72 1032.50 1032.25 1031.82 1031.46
1033.87 1033.94 1034.14 1034.70 1035.10 1035.41 1035.67 1035.81 1035.85 1035.74 1035.53 1035.55 1035.53 1035.28 1034.73 1034.39 1034.20 1034.05 1033.96 1034.11 1034.41 1034.58 1034.87 1035.15 1035.47 1035.65 1035.78 1035.89 1035.98 1036.04 1036.08 1035.97 1036.05 1036.28 1036.33 1036.33 1036.39 1036.47 1036.37 1036.41 1036.16 1035.85 1035.50 1035.11 1034.03 1033.54 1033.21 1032.52 1032.45 1032.18 1032.32 1032.22 1031.85 1031.48
1034.82 1034.69 1035.10 1035.58 1035.95 1036.29 1036.29 1036.15 1036.26 1036.22 1036.02 1036.00 1035.94 1035.62 1035.21 1034.72 1034.46 1034.47 1034.36 1034.49 1034.65 1034.74 1035.00 1035.24 1035.44 1035.70 1035.77 1035.90 1035.98 1036.11 1036.16 1036.12 1036.08 1036.18 1036.26 1036.36 1036.31 1036.21 1036.10 1035.93 1035.65 1035.25 1035.05 1034.73 1034.31 1033.99 1033.36 1033.05 1033.07 1032.77 1032.62 1032.41 1032.11 1031.68
1035.46 1035.52 1036.05 1036.38 1036.76 1036.72 1036.57 1036.48 1036.40 1036.36 1036.46 1036.54 1036.61 1036.42 1035.82 1035.36 1034.71 1034.52 1034.53 1034.62 1034.87 1035.15 1035.41 1035.58 1035.72 1035.77 1035.90 1036.03 1036.04 1036.09 1036.17 1036.20 1036.22 1036.28 1036.08 1036.04 1035.99 1035.81 1035.54 1035.46 1035.10 1034.89 1034.73 1034.50 1034.35 1034.30 1034.16 1033.95 1033.78 1033.49 1033.20 1032.94 1032.62 1032.28
1036.28 1036.78 1037.11 1037.16 1037.12 1036.79 1036.72 1036.69 1036.77 1036.83 1036.82 1036.91 1036.84 1036.60 1036.23 1035.98 1035.45 1034.76 1034.60 1035.01 1035.35 1035.42 1035.31 1035.39 1035.58 1035.57 1035.68 1035.80 1035.89 1035.91 1035.93 1036.09 1036.09 1036.27 1036.34 1036.03 1035.46 1034.92 1034.67 1034.54 1034.49 1034.44 1034.36 1034.40 1034.45 1034.54 1034.53 1034.46 1034.19 1033.96 1033.71 1033.43 1033.12 1032.75
1037.40 1037.61 1037.56 1037.52 1037.48 1037.25 1037.00 1036.98 1036.89 1036.91 1036.81 1036.71 1036.64 1036.74 1036.55 1036.29 1035.52 1034.73 1034.97 1035.23 1035.22 1035.04 1035.21 1035.30 1035.34 1035.51 1035.75 1035.76 1035.90 1035.80 1035.21 1035.99 1036.02 1035.02 1034.47 1034.13 1033.39 1033.09 1033.48 1033.71 1034.05 1034.17 1034.26 1034.30 1034.40 1034.53 1034.61 1034.68 1034.59 1034.38 1034.10 1033.80 1033.45 1033.11
Wind_Speed
5 8 10 13 15 17 18 19 20 20 20 20 21 22 24 23 22 13 8 8 5 4 10 9 9 8 7 5 9 3 5 2 2 4 3 2 3 3 5 10 9 3 5 4 4 4 6 18 8 9 14 18 18 20
7 9 12 13 15 17 19 20 20 20 20 21 22 24 25 25 24 18 7 2 7 5 5 4 9 15 16 15 8 4 5 3 3 4 3 2 4 5 6 4 5 1 4 3 5 3 7 12 7 11 15 16 18 19
8 11 13 14 16 18 20 21 21 21 21 22 23 25 25 24 22 14 3 1 2 3 3 2 5 1 3 8 7 5 5 6 6 3 2 3 5 2 4 3 5 5 4 5 8 1 14 14 13 16 17 15 17 15
8 10 13 15 17 19 20 21 21 21 21 23 24 24 23 20 14 9 2 3 2 1 3 3 2 6 3 4 7 11 13 9 3 4 4 4 3 3 3 4 4 4 9 11 11 9 16 7 19 20 17 12 10 8
9 12 13 16 18 20 21 21 21 21 23 23 23 22 19 13 7 4 3 3 1 2 3 5 7 2 7 7 9 8 8 11 4 4 4 3 2 4 5 3 3 7 8 6 5 16 11 19 16 17 13 11 8 6
10 13 15 16 17 20 21 20 21 23 23 22 21 19 12 9 5 2 1 1 4 2 2 3 2 3 5 10 4 3 7 3 1 1 2 1 5 4 3 3 4 15 14 12 11 14 14 14 7 12 8 9 10 13
12 14 15 18 18 20 20 20 22 23 22 22 20 12 6 6 3 3 2 3 4 0 1 3 4 3 4 3 4 4 4 4 4 3 4 4 5 6 3 5 17 18 15 11 12 11 7 6 4 8 11 12 16 16
12 14 16 18 19 20 19 20 24 23 22 21 14 7 4 5 3 1 4 7 1 2 1 2 4 5 5 4 3 4 3 3 6 4 2 5 4 5 3 17 18 16 9 7 7 5 6 6 8 9 8 10 15 14
12 15 17 18 20 19 17 22 22 22 22 16 7 5 3 4 2 2 14 4 3 3 2 3 6 5 7 3 3 2 2 4 2 4 5 4 5 7 12 17 16 12 7 5 8 9 10 11 12 11 11 12 14 13
12 15 17 18 19 15 20 20 20 20 17 6 4 3 2 2 13 8 4 3 5 5 4 3 4 4 5 3 2 4 2 3 3 4 1 5 4 10 16 14 12 12 10 8 9 10 11 12 12 13 14 12 13 14
13 16 19 17 14 19 18 20 19 17 7 4 4 2 2 9 2 4 3 4 4 4 5 4 4 6 3 4 3 4 2 3 4 6 4 5 7 15 17 14 14 13 13 13 14 14 15 13 12 14 15 16 15 16
14 17 19 14 13 18 20 18 16 4 1 2 1 3 3 6 3 6 3 3 4 3 5 5 5 3 5 3 2 4 2 3 5 3 4 5 7 17 16 15 15 15 16 17 17 18 17 17 16 15 14 14 14 13
14 17 18 9 18 18 19 14 11 4 4 3 5 6 5 5 10 6 5 3 4 6 4 8 7 3 4 2 2 3 4 4 1 4 3 4 8 12 14 12 14 16 18 19 20 19 17 18 18 16 13 11 13 14
15 18 13 7 18 18 16 12 8 5 6 6 5 8 5 4 3 2 2 3 4 4 8 8 5 3 3 4 3 3 3 1 4 3 3 4 8 9 10 10 12 14 15 16 17 16 17 18 16 16 15 13 13 14
15 16 2 11 18 18 13 7 7 5 4 5 4 4 3 1 3 3 2 3 3 5 5 5 4 3 2 2 3 1 3 5 4 2 2 3 6 8 10 11 12 12 12 14 14 14 15 14 14 14 14 12 12 12
17 4 3 19 16 14 12 4 5 3 5 4 4 2 3 2 2 2 3 4 3 4 4 3 3 2 4 3 4 4 2 3 3 3 2 3 6 7 9 10 11 11 12 12 12 13 13 13 12 12 12 12 12 12
8 1 14 14 14 5 12 4 4 7 5 4 1 1 2 3 4 3 6 3 4 4 2 1 2 3 2 3 3 3 2 4 6 5 4 6 6 6 7 9 10 11 12 12 11 12 11 10 10 11 13 10 8 9
2 4 11 13 7 3 4 5 5 5 4 1 1 1 2 2 3 4 3 3 3 2 2 2 2 4 3 2 2 2 4 6 6 6 5 5 6 7 7 8 9 9 9 9 9 10 11 10 9 8 9 9 8 8
5 1 9 9 4 4 4 4 4 4 1 1 2 1 1 1 2 2 3 2 2 3 3 2 5 3 2 3 4 5 4 4 6 5 5 7 7 7 8 8 9 9 9 9 9 6 6 9 8 7 7 6 4 5
4 6 9 9 3 4 5 3 2 4 2 1 1 1 1 1 3 3 5 4 3 3 5 4 3 2 2 3 4 5 5 6 6 6 5 5 5 7 9 7 6 7 7 8 8 10 7 7 7 7 7 6 5 5
5 5 7 4 4 7 5 2 3 2 0 1 1 0 0 1 3 4 3 2 4 4 3 3 3 3 4 4 5 4 5 3 2 1 3 4 4 5 5 5 6 6 5 6 6 7 8 6 5 6 5 5 5 4
2 7 3 5 5 5 6 1 2 0 1 1 1 1 2 2 2 3 2 6 4 3 2 2 2 3 5 6 6 7 5 7 8 7 8 6 4 5 6 5 5 5 5 5 4 5 5 5 5 5 5 6 6 5
5 4 4 5 6 6 2 1 3 5 3 2 2 2 2 2 1 2 4 3 2 2 3 3 4 6 7 7 7 9 8 7 6 5 5 5 5 4 5 5 5 5 4 5 5 5 5 9 7 7 6 5 4 4
9 7 6 4 4 1 2 5 2 3 3 4 3 2 2 2 4 3 3 2 1 1 2 3 3 4 4 6 5 5 5 3 4 4 3 3 4 3 3 3 4 6 6 4 4 5 5 5 8 6 6 5 5 4
7 8 5 6 3 5 6 5 5 4 2 2 2 2 1 3 2 2 2 2 2 1 1 2 2 3 3 2 2 2 3 2 3 4 3 2 2 2 2 3 3 3 5 5 7 7 7 6 6 7 7 7 8 5
7 4 4 1 3 3 0 2 2 1 1 2 1 2 2 1 2 2 3 4 3 2 2 2 2 3 2 1 2 1 1 1 0 2 1 1 2 3 3 3 3 3 3 4 4 6 8 8 7 8 8 9 12 8
4 3 2 2 0 2 2 2 2 2 2 1 2 2 3 2 2 2 2 1 2 2 2 2 1 1 2 2 2 1 0 1 1 1 1 1 1 1 1 2 3 4 6 5 5 5 7 8 8 7 7 7 6 6
2 1 1 3 2 2 3 2 1 1 1 1 1 1 4 5 2 2 1 1 2 3 3 2 2 1 1 1 1 1 1 1 1 1 1 1 1 2 3 2 3 12 6 4 5 4 5 7 7 7 7 7 6 5
2 3 0 3 2 3 1 2 2 1 0 1 2 2 2 2 1 1 1 2 2 3 3 3 1 1 1 1 1 0 0 2 3 2 0 1 2 1 2 3 4 4 3 3 9 10 10 9 6 6 5 5 6 5
3 2 3 1 2 1 2 1 2 2 1 1 1 2 2 2 2 1 1 2 3 2 1 1 2 2 2 3 2 1 1 0 1 2 3 2 3 2 3 4 4 5 3 3 4 5 11 6 6 4 4 4 4 4
1 2 3 2 2 3 3 1 2 1 2 1 1 2 2 3 3 2 3 2 2 2 3 2 2 2 3 3 2 2 2 2 4 3 2 3 3 4 5 4 4 3 3 3 4 4 4 4 4 5 5 5 6 6
3 2 3 1 3 3 2 2 1 1 2 2 2 1 3 2 3 2 3 4 3 3 5 3 3 3 4 2 1 1 2 1 2 3 5 4 5 6 5 4 3 1 2 3 3 3 3 4 4 4 4 5 5 6
2 2 2 2 4 3 2 2 3 4 1 1 2 1 2 2 5 3 0 1 2 3 4 4 3 2 3 4 3 3 2 2 5 7 8 10 11 7 1 1 1 1 0 2 3 3 3 4 3 4 4 5 5 6
Wind_Direction
356 343 342 335 335 337 331 331 333 332 330 329 331 328 321 318 315 314 292 199 223 244 269 242 260 244 244 247 275 314 290 152 210 236 266 298 284 349 291 305 291 247 175 197 236 253 266 9 347 19 320 315 308 312
351 343 331 335 336 331 329 330 331 330 331 330 328 324 323 322 327 325 295 191 225 258 292 343 261 249 257 262 267 220 252 199 254 243 236 277 260 295 311 296 328 308 342 332 255 306 345 5 354 334 321 311 310 315
350 343 335 334 333 331 332 331 329 330 331 330 328 326 327 333 336 348 315 169 217 260 257 260 257 305 253 236 218 250 245 220 221 182 242 247 256 240 277 258 295 338 8 294 321 159 336 314 355 349 337 323 313 318
348 335 331 336 331 334 332 328 329 331 333 329 328 329 334 339 5 17 350 352 288 21 282 291 322 299 313 258 215 215 252 254 226 183 211 219 229 228 255 297 316 352 317 338 283 297 334 100 343 338 326 329 336 347
337 342 338 330 339 332 330 331 332 334 329 329 331 334 339 341 14 90 44 15 345 321 302 304 307 289 292 276 272 257 261 257 191 180 196 211 218 235 249 250 79 1 345 312 297 323 305 302 320 332 334 350 6 48
338 340 342 341 332 333 331 332 333 330 330 331 334 339 337 1 38 113 209 21 6 16 321 305 336 287 306 336 334 319 351 354 66 109 84 61 356 297 34 23 82 350 318 291 284 301 297 326 345 332 5 34 57 69
349 352 341 337 335 334 333 331 330 329 330 333 336 337 338 54 46 54 39 306 337 4 338 299 330 350 315 321 335 10 6 28 3 49 32 6 6 353 57 1 332 317 309 306 294 283 265 20 5 36 57 59 64 63
348 349 336 336 336 336 334 333 329 330 334 336 343 342 30 99 64 8 350 2 49 83 42 6 324 330 10 334 317 344 9 38 25 34 26 18 8 14 39 335 322 318 325 346 16 66 84 82 65 59 57 73 76 74
342 343 337 339 335 338 334 332 332 335 337 343 356 80 65 33 10 305 318 12 41 43 67 44 340 324 355 304 309 305 347 63 47 28 25 38 20 36 324 325 328 331 6 21 58 67 70 65 63 56 67 71 78 77
344 336 333 340 343 342 333 335 338 341 342 10 42 53 22 11 307 321 21 15 17 351 27 45 334 301 329 312 318 320 15 38 44 41 43 26 57 354 348 344 351 3 30 31 57 56 64 66 64 62 61 66 72 76
334 329 336 349 346 339 338 344 348 347 20 28 29 20 310 341 33 24 48 39 334 43 14 347 358 323 315 311 331 15 40 22 45 11 25 17 5 351 347 3 10 19 37 51 62 62 58 58 68 71 66 62 63 67
333 328 333 352 339 341 347 350 357 35 51 35 35 61 20 27 25 67 18 339 25 22 347 342 328 297 294 282 312 358 71 47 53 359 33 11 344 341 352 2 18 27 40 49 52 57 52 50 52 57 60 58 57 58
327 326 338 344 346 348 350 352 8 52 103 54 44 49 12 337 40 42 359 357 337 351 15 337 326 299 279 338 314 357 65 65 94 45 43 22 332 344 352 1 20 29 35 41 43 45 49 52 47 48 54 56 66 68
329 327 345 347 349 351 354 3 27 77 66 63 47 23 42 8 42 253 287 303 295 291 316 318 286 295 330 335 346 67 47 98 78 53 29 353 348 349 358 9 27 34 38 45 51 50 54 54 53 48 48 50 57 60
326 331 17 340 350 354 357 21 56 50 71 71 54 36 10 302 261 263 290 289 273 286 307 306 285 279 331 357 13 82 61 69 54 74 47 359 6 10 19 25 33 37 40 46 46 50 52 53 55 54 45 47 55 60
328 355 314 344 348 358 2 52 38 77 58 74 74 22 302 298 298 302 299 301 301 318 295 232 301 6 35 6 42 31 75 92 121 98 87 57 36 28 27 32 38 41 43 44 42 46 47 46 49 55 51 45 45 52
352 2 330 337 347 36 24 72 58 45 96 66 76 219 251 266 261 278 301 292 311 292 340 7 48 38 310 51 52 14 49 107 116 99 78 63 54 45 42 44 40 40 41 40 42 42 44 47 51 51 48 35 41 46
217 306 337 346 7 44 39 33 82 73 71 166 131 277 259 260 305 331 310 298 303 342 32 61 41 49 44 56 74 103 97 91 82 83 72 58 55 54 51 54 49 46 47 42 41 42 38 37 42 42 34 23 35 32
319 108 5 7 61 85 72 27 35 111 138 149 260 263 278 332 335 341 319 300 59 45 81 47 62 52 44 4 94 114 116 111 114 95 76 57 53 54 52 50 48 43 39 33 37 37 36 37 33 23 22 22 29 21
25 42 24 34 66 81 61 23 353 94 140 148 112 142 50 39 11 25 32 36 43 54 46 43 41 29 3 348 27 76 97 116 120 109 85 62 53 56 47 46 42 36 37 30 26 36 24 28 22 14 4 15 17 9
41 350 20 61 46 61 79 9 50 55 162 134 10 335 57 354 14 19 27 15 58 33 68 27 35 47 43 37 36 62 58 76 83 57 114 99 63 62 54 42 38 45 42 31 25 16 24 13 351 359 356 1 2 345
342 7 48 14 74 38 78 347 91 27 52 65 64 16 52 30 11 18 357 45 64 23 22 23 19 47 61 46 36 42 64 77 68 84 84 98 78 61 50 38 38 38 38 28 16 12 5 348 353 10 1 357 0 355
21 27 38 27 70 44 292 27 67 0 76 339 14 51 25 20 15 352 72 55 82 14 31 62 59 63 81 68 71 54 47 73 80 78 83 86 81 75 68 51 38 35 31 23 9 2 353 352 349 2 353 0 359 359
32 48 46 49 49 207 8 18 26 45 48 28 41 23 7 342 323 63 76 58 77 29 54 79 111 100 82 61 58 50 32 58 88 74 42 106 97 63 55 65 51 43 29 351 353 353 353 354 356 355 354 347 351 353
65 344 55 355 337 45 31 11 353 45 58 338 54 354 344 327 72 72 110 146 150 126 88 72 77 82 104 98 97 76 25 33 92 93 32 60 109 123 72 52 46 37 10 5 4 356 353 348 352 353 348 340 332 359
69 314 68 296 319 75 100 47 18 210 106 19 272 303 342 80 86 146 165 151 147 161 161 156 142 126 103 99 139 166 145 5 161 107 117 76 72 85 66 40 7 353 3 340 334 340 343 344 338 336 340 342 342 348
65 325 344 34 121 103 72 44 44 101 87 136 297 18 54 81 230 176 123 98 135 139 121 116 135 151 140 143 130 121 125 172 244 71 76 171 185 121 86 60 337 311 312 315 317 320 333 330 323 321 319 318 320 321
136 57 61 315 54 20 130 66 90 155 231 227 104 8 164 192 207 124 96 102 116 116 107 84 58 64 114 118 94 40 136 19 124 164 203 233 246 260 253 261 293 302 327 296 300 325 323 307 298 306 310 309 308 314
50 343 182 15 17 45 115 154 200 234 1 146 148 249 250 244 244 196 141 139 136 156 157 166 156 90 100 112 144 132 65 175 127 97 220 271 334 304 193 285 293 292 297 310 328 340 325 318 341 322 329 313 311 309
299 348 84 33 82 276 252 202 228 249 250 160 276 303 271 268 248 224 190 165 183 193 171 151 129 186 182 183 182 202 192 118 135 152 168 205 227 282 298 298 302 297 306 319 323 325 339 352 343 350 347 340 340 338
342 59 65 55 197 252 239 278 322 23 35 3 344 185 261 305 295 225 211 188 147 134 155 177 191 201 176 177 182 181 229 209 216 222 225 247 265 269 272 270 272 278 301 318 330 332 328 329 327 329 334 340 336 354
23 88 121 29 294 288 27 61 2 6 332 1 286 321 320 353 275 241 185 139 144 180 214 175 187 220 205 209 195 253 262 175 215 226 238 262 273 266 261 254 257 288 326 337 336 324 306 308 314 324 327 330 330 331
42 42 33 50 9 0 314 53 8 333 309 302 277 226 230 219 244 266 351 208 169 182 189 195 197 178 189 196 204 229 250 214 250 254 270 287 292 305 124 203 225 199 314 312 320 323 310 308 302 314 324 324 323 323